Location: Beadle
(51.4667°N, 109.0000°W)
Time: 05:00:42
(UTC+00:00)

O/OREOS (USA 219) - Pass Details

Date: 27 June 2022
Orbit: 621 x 646 km, 72.0° (Epoch: 22 May)

Event Time Altitude Azimuth Distance (km) Brightness Sun altitude
Rises 05:43:18 0° 337° (NNW) 2,958 ? -12.3°
Reaches altitude 10° 05:47:45 10° 17° (NNE) 2,051 ? -12.6°
Maximum altitude 05:48:40 11° 29° (NNE) 2,016 ? -12.6°
Drops below altitude 10° 05:49:36 10° 41° (NE) 2,051 ? -12.7°
Sets 05:54:03 0° 81° (E) 2,961 ? -12.9°
